Universal City, TX

3:18 AM CST on January 19, 2017 (GMT -0600)
Randolph Air Force Base

Weather History for KRND - December, 2015

Change the Weather History Date:

Monday, December 21, 2015

  Actual Average Record
Temperature  
Mean Temperature 63 °F -  
Max Temperature 73 °F 59 °F 77 °F (1998)
Min Temperature 53 °F 38 °F 27 °F (2012)
Degree Days  
Heating Degree Days 2    
Growing Degree Days 13 (Base 50)    
Moisture  
Dew Point 60 °F    
Average Humidity 96    
Maximum Humidity 100    
Minimum Humidity 65    
Precipitation  
Precipitation 0.00 in - - ()
Sea Level Pressure  
Sea Level Pressure 29.96 in    
Wind  
Wind Speed 2 mph (WNW)    
Max Wind Speed 10 mph    
Max Gust Speed -    
Visibility 4 miles    
Events Fog    
Averages and records for this station are not official NWS values.
T = Trace of Precipitation, MM = Missing Value Source: NWS Daily Summary

Daily Weather History Graph

Daily Weather History Graph

Search for Another Location

Airport or City:

Trip Planner

Search our weather history database for the weather conditions in past years. The results will help you decide how hot, cold, wet, or windy it might be!

Date:

Astronomy

Dec. 21, 2015 Rise Set
Actual Time 7:23 AM CST 5:38 PM CST
Civil Twilight 6:57 AM CST 6:04 PM CST
Nautical Twilight 6:27 AM CST 6:34 PM CST
Astronomical Twilight 5:58 AM CST 7:03 PM CST
Moon 2:49 PM CST (12/21) 3:14 AM CST (12/21)
Length of Visible Light 11h 07m
Length of Day
10h 15m
Waxing Gibbous, 83% of the Moon is Illuminated
Dec 21
Waxing Gibbous
Dec 25
Full
Jan 1
Last Quarter
Jan 9
New
Jan 16
First Quarter

Hourly Weather History & Observations

Time (CST) Temp. Dew Point Humidity Pressure Visibility Wind Dir Wind Speed Gust Speed Precip Events Conditions
12:58 AM 63.3 °F 63.3 °F 100% 29.98 in 10.0 mi South 4.6 mph - N/A   Clear
1:58 AM 61.3 °F 61.3 °F 100% 29.97 in 10.0 mi South 4.6 mph - N/A   Clear
2:13 AM 60.8 °F 60.8 °F 100% 29.97 in 7.0 mi SSE 3.5 mph - N/A   Clear
2:18 AM 60.8 °F 60.8 °F 100% 29.97 in 3.0 mi Calm Calm - N/A   Clear
2:23 AM 60.8 °F 60.8 °F 100% 29.98 in 2.5 mi Calm Calm - N/A   Clear
2:28 AM 60.8 °F 60.8 °F 100% 29.98 in 3.0 mi Calm Calm - N/A   Clear
2:33 AM 60.8 °F 60.8 °F 100% 29.98 in 6.0 mi Calm Calm - N/A   Clear
2:38 AM 60.8 °F 60.8 °F 100% 29.97 in 9.0 mi Calm Calm - N/A   Clear
2:43 AM 60.8 °F 60.8 °F 100% 29.97 in 4.0 mi Calm Calm - N/A   Clear
2:48 AM 60.8 °F 60.8 °F 100% 29.97 in 2.0 mi Calm Calm - N/A   Clear
2:53 AM 60.8 °F 60.8 °F 100% 29.97 in 1.2 mi Calm Calm - N/A   Clear
2:58 AM 60.8 °F 60.8 °F 100% 29.96 in 1.0 mi Calm Calm - N/A   Clear
3:03 AM 60.8 °F 60.8 °F 100% 29.96 in 0.8 mi Calm Calm - N/A   Clear
3:08 AM 60.8 °F 60.8 °F 100% 29.96 in 0.5 mi Calm Calm - N/A Fog Fog
3:28 AM 60.8 °F 60.8 °F 100% 29.96 in 0.8 mi Calm Calm - N/A   Clear
3:33 AM 60.8 °F 60.8 °F 100% 29.96 in 0.5 mi Calm Calm - N/A Fog Fog
3:58 AM 59.0 °F 59.0 °F 100% 29.95 in 0.2 mi Calm Calm - N/A Fog Fog
4:03 AM 59.0 °F 59.0 °F 100% 29.95 in 0.5 mi Calm Calm - N/A Fog Fog
4:08 AM 59.0 °F 59.0 °F 100% 29.96 in 0.8 mi Calm Calm - N/A   Scattered Clouds
4:23 AM 59.0 °F 59.0 °F 100% 29.95 in 0.8 mi Calm Calm - N/A   Scattered Clouds
4:28 AM 59.0 °F 59.0 °F 100% 29.95 in 0.8 mi Calm Calm - N/A   Scattered Clouds
4:33 AM 59.0 °F 59.0 °F 100% 29.95 in 1.0 mi Calm Calm - N/A   Mostly Cloudy
4:38 AM 57.2 °F 57.2 °F 100% 29.95 in 0.8 mi Calm Calm - N/A   Scattered Clouds
4:43 AM 59.0 °F 59.0 °F 100% 29.95 in 0.5 mi Calm Calm - N/A Fog Fog
4:58 AM 59.0 °F 59.0 °F 100% 29.94 in 0.8 mi Calm Calm - N/A   Mostly Cloudy
5:03 AM 59.0 °F 59.0 °F 100% 29.96 in 0.8 mi Calm Calm - N/A   Mostly Cloudy
5:13 AM 59.0 °F 59.0 °F 100% 29.96 in 0.8 mi Calm Calm - N/A   Scattered Clouds
5:18 AM 59.0 °F 59.0 °F 100% 29.96 in 0.5 mi Calm Calm - N/A Fog Fog
5:23 AM 59.0 °F 59.0 °F 100% 29.96 in 0.8 mi Calm Calm - N/A   Scattered Clouds
5:33 AM 59.0 °F 59.0 °F 100% 29.96 in 0.5 mi Calm Calm - N/A Fog Fog
5:43 AM 59.0 °F 59.0 °F 100% 29.97 in 0.8 mi Calm Calm - N/A   Scattered Clouds
5:45 AM 59.0 °F 59.0 °F 100% 29.97 in 0.8 mi Calm Calm - N/A   Scattered Clouds
5:50 AM 57.2 °F 57.2 °F 100% 29.97 in 1.0 mi Calm Calm - N/A   Mostly Cloudy
5:55 AM 59.0 °F 59.0 °F 100% 29.97 in 0.8 mi Calm Calm - N/A   Mostly Cloudy
5:58 AM 59.0 °F 59.0 °F 100% 29.96 in 0.8 mi Calm Calm - N/A   Mostly Cloudy
6:03 AM 59.0 °F 59.0 °F 100% 29.97 in 0.5 mi Calm Calm - N/A Fog Fog
6:08 AM 59.0 °F 59.0 °F 100% 29.97 in 0.2 mi Calm Calm - N/A Fog Fog
6:13 AM 59.0 °F 59.0 °F 100% 29.96 in 0.5 mi North 2.3 mph - N/A Fog Fog
6:18 AM 59.0 °F 59.0 °F 100% 29.96 in 0.5 mi North 3.5 mph - N/A Fog Fog
6:22 AM 59.0 °F 59.0 °F 100% 29.96 in 0.8 mi North 3.5 mph - N/A   Light Drizzle
6:31 AM 59.0 °F 59.0 °F 100% 29.96 in 0.8 mi NNW 4.6 mph - N/A   Mist
6:41 AM 59.0 °F 59.0 °F 100% 29.96 in 0.8 mi NNW 3.5 mph - N/A   Mist
6:46 AM 59.0 °F 59.0 °F 100% 29.96 in 0.5 mi North 3.5 mph - N/A Fog Fog
6:51 AM 59.0 °F 59.0 °F 100% 29.97 in 0.5 mi Calm Calm - N/A Fog Fog
6:58 AM 59.5 °F 59.5 °F 100% 29.96 in 0.4 mi Calm Calm - 0.00 in Fog Fog
7:04 AM 59.0 °F 59.0 °F 100% 29.97 in 0.4 mi North 2.3 mph - N/A Fog Fog
7:10 AM 59.0 °F 59.0 °F 100% 29.98 in 0.5 mi NNW 4.6 mph - N/A Fog Fog
7:14 AM 59.0 °F 59.0 °F 100% 29.98 in 0.8 mi NNW 4.6 mph - N/A   Mostly Cloudy
7:21 AM 59.0 °F 59.0 °F 100% 29.97 in 0.5 mi North 3.5 mph - N/A Fog Fog
7:28 AM 59.0 °F 59.0 °F 100% 29.98 in 0.4 mi North 3.5 mph - N/A Fog Fog
7:34 AM 59.0 °F 59.0 °F 100% 29.98 in 0.2 mi North 3.5 mph - N/A Fog Fog
7:58 AM 59.0 °F 58.8 °F 99% 29.97 in 0.4 mi NNW 5.8 mph - N/A Fog Fog
8:32 AM 59.0 °F 59.0 °F 100% 29.99 in 0.4 mi Calm Calm - N/A Fog Fog
8:58 AM 61.0 °F 61.0 °F 100% 29.99 in 0.4 mi Calm Calm - N/A Fog Fog
9:46 AM 64.4 °F 64.4 °F 100% 30.01 in 0.5 mi Calm Calm - N/A   Mist
9:50 AM 64.4 °F 64.4 °F 100% 30.01 in 1.0 mi Calm Calm - N/A   Mostly Cloudy
9:58 AM 64.0 °F 64.0 °F 100% 30.00 in 3.0 mi Calm Calm - N/A   Mostly Cloudy
10:10 AM 64.4 °F 64.4 °F 100% 30.01 in 6.0 mi Variable 1.2 mph - N/A   Mostly Cloudy
10:20 AM 66.2 °F 66.2 °F 100% 30.01 in 7.0 mi Variable 2.3 mph - N/A   Mostly Cloudy
10:33 AM 66.2 °F 66.2 °F 100% 30.01 in 10.0 mi South 3.5 mph - N/A   Mostly Cloudy
10:46 AM 68.0 °F 68.0 °F 100% 30.01 in 10.0 mi SSW 5.8 mph - N/A   Mostly Cloudy
10:58 AM 68.0 °F 68.0 °F 100% 29.98 in 10.0 mi West 3.5 mph - N/A   Mostly Cloudy
11:08 AM 68.0 °F 68.0 °F 100% 29.99 in 10.0 mi SSW 6.9 mph - N/A   Mostly Cloudy
11:50 AM 69.8 °F 68.0 °F 94% 29.97 in 10.0 mi SW 3.5 mph - N/A   Mostly Cloudy
11:58 AM 70.2 °F 64.6 °F 82% 29.96 in 10.0 mi West 4.6 mph - N/A   Mostly Cloudy
12:03 PM 71.6 °F 62.6 °F 73% 29.97 in 10.0 mi WSW 5.8 mph - N/A   Mostly Cloudy
12:36 PM 71.6 °F 62.6 °F 73% 29.96 in 10.0 mi West 5.8 mph - N/A   Mostly Cloudy
12:58 PM 72.3 °F 62.2 °F 70% 29.93 in 10.0 mi Variable 5.8 mph - N/A   Mostly Cloudy
1:13 PM 71.6 °F 62.6 °F 73% 29.94 in 10.0 mi West 5.8 mph - N/A   Scattered Clouds
1:20 PM 71.6 °F 62.6 °F 73% 29.93 in 10.0 mi West 4.6 mph - N/A   Mostly Cloudy
1:38 PM 73.4 °F 60.8 °F 65% 29.92 in 10.0 mi West 5.8 mph - N/A   Scattered Clouds
1:58 PM 73.9 °F 62.1 °F 66% 29.92 in 10.0 mi WNW 10.4 mph - N/A   Mostly Cloudy
2:08 PM 73.4 °F 62.6 °F 69% 29.93 in 10.0 mi West 9.2 mph - N/A   Mostly Cloudy
2:16 PM 73.4 °F 62.6 °F 69% 29.93 in 10.0 mi NW 9.2 mph - N/A   Mostly Cloudy
2:33 PM 71.6 °F 60.8 °F 69% 29.93 in 10.0 mi WNW 9.2 mph - N/A   Mostly Cloudy
2:58 PM 72.1 °F 61.3 °F 69% 29.91 in 10.0 mi NW 5.8 mph - N/A   Mostly Cloudy
3:58 PM 72.0 °F 61.7 °F 70% 29.89 in 10.0 mi South 2.3 mph - N/A   Mostly Cloudy
4:58 PM 70.3 °F 62.1 °F 75% 29.89 in 10.0 mi SW 2.3 mph - N/A   Clear
5:58 PM 67.6 °F 61.5 °F 81% 29.91 in 10.0 mi SW 4.6 mph - N/A   Clear
6:58 PM 63.7 °F 60.6 °F 90% 29.92 in 10.0 mi WSW 3.5 mph - N/A   Clear
7:58 PM 61.5 °F 60.6 °F 97% 29.94 in 10.0 mi West 2.3 mph - N/A   Clear
8:58 PM 60.4 °F 60.4 °F 100% 29.96 in 10.0 mi WNW 3.5 mph - N/A   Clear
9:18 PM 59.0 °F 59.0 °F 100% 29.95 in 9.0 mi North 3.5 mph - N/A   Clear
9:28 PM 57.2 °F 57.2 °F 100% 29.94 in 10.0 mi NNW 4.6 mph - N/A   Clear
9:53 PM 59.0 °F 59.0 °F 100% 29.94 in 7.0 mi NNW 3.5 mph - N/A   Clear
9:58 PM 57.9 °F 57.9 °F 100% 29.94 in 5.0 mi NNW 4.6 mph - N/A   Clear
10:08 PM 57.2 °F 57.2 °F 100% 29.94 in 9.0 mi NNW 4.6 mph - N/A   Clear
10:13 PM 55.4 °F 55.4 °F 100% 29.93 in 10.0 mi NNW 4.6 mph - N/A   Clear
10:38 PM 55.4 °F 55.4 °F 100% 29.94 in 9.0 mi Calm Calm - N/A   Clear
10:48 PM 57.2 °F 57.2 °F 100% 29.93 in 10.0 mi NW 2.3 mph - N/A   Clear
10:53 PM 55.4 °F 55.4 °F 100% 29.94 in 4.0 mi NW 2.3 mph - N/A   Clear
10:58 PM 55.4 °F 55.4 °F 100% 29.93 in 1.0 mi NNW 3.5 mph - N/A   Clear
11:03 PM 55.4 °F 55.4 °F 100% 29.94 in 0.5 mi NNW 4.6 mph - N/A Fog Fog
11:08 PM 55.4 °F 55.4 °F 100% 29.94 in 0.8 mi NNW 4.6 mph - N/A   Clear
11:13 PM 53.6 °F 53.6 °F 100% 29.94 in 3.0 mi NNW 3.5 mph - N/A   Clear
11:18 PM 55.4 °F 55.4 °F 100% 29.94 in 5.0 mi NW 3.5 mph - N/A   Clear
11:43 PM 55.4 °F 55.4 °F 100% 29.93 in 8.0 mi Calm Calm - N/A   Clear
11:53 PM 53.6 °F 53.6 °F 100% 29.93 in 1.2 mi Calm Calm - N/A   Clear
11:58 PM 54.1 °F 54.1 °F 100% 29.92 in 0.5 mi WNW 3.5 mph - N/A Fog Fog